TimeCDT,TemperatureF,Dew PointF,Humidity,Sea Level PressureIn,VisibilityMPH,Wind Direction,Wind SpeedMPH,Gust SpeedMPH,PrecipitationIn,Events,Conditions,WindDirDegrees,DateUTC
1:55 AM,51.8,50.0,94,29.94,10.0,South,3.5,-,N/A,,Clear,190,2013-04-29 06:55:00
2:35 AM,51.8,50.0,94,29.94,8.0,Calm,Calm,-,N/A,,Clear,0,2013-04-29 07:35:00
2:55 AM,51.8,50.0,94,29.93,10.0,South,3.5,-,N/A,,Clear,190,2013-04-29 07:55:00
3:15 AM,51.8,50.0,94,29.93,8.0,South,4.6,-,N/A,,Clear,170,2013-04-29 08:15:00
3:35 AM,51.8,48.2,88,29.93,8.0,SSE,3.5,-,N/A,,Clear,150,2013-04-29 08:35:00
3:55 AM,51.8,50.0,94,29.93,7.0,SSE,3.5,-,N/A,,Clear,150,2013-04-29 08:55:00
4:15 AM,51.8,50.0,94,29.93,8.0,Calm,Calm,-,N/A,,Clear,0,2013-04-29 09:15:00
4:35 AM,50.0,50.0,100,29.94,2.5,Calm,Calm,-,N/A,,Clear,0,2013-04-29 09:35:00
4:55 AM,51.8,50.0,94,29.94,5.0,Calm,Calm,-,N/A,,Clear,0,2013-04-29 09:55:00
5:15 AM,51.8,50.0,94,29.94,1.2,Calm,Calm,-,N/A,,Clear,0,2013-04-29 10:15:00
5:35 AM,50.0,48.2,94,29.95,0.2,Calm,Calm,-,N/A,,Unknown,0,2013-04-29 10:35:00
5:55 AM,48.2,46.4,93,29.95,0.2,Calm,Calm,-,N/A,,Unknown,0,2013-04-29 10:55:00
6:15 AM,48.2,48.2,100,29.96,0.5,Calm,Calm,-,N/A,,Unknown,0,2013-04-29 11:15:00
6:35 AM,50.0,48.2,94,29.97,0.5,Calm,Calm,-,N/A,,Unknown,0,2013-04-29 11:35:00
6:55 AM,48.2,48.2,100,29.98,10.0,SSW,4.6,-,N/A,,Clear,200,2013-04-29 11:55:00
7:15 AM,51.8,51.8,100,29.98,10.0,SSW,3.5,-,N/A,,Clear,200,2013-04-29 12:15:00
7:35 AM,53.6,51.8,94,30.00,10.0,South,6.9,-,N/A,,Clear,190,2013-04-29 12:35:00
7:55 AM,53.6,51.8,94,30.00,10.0,South,9.2,-,N/A,,Clear,190,2013-04-29 12:55:00
8:15 AM,55.4,53.6,94,30.00,10.0,South,9.2,-,N/A,,Clear,180,2013-04-29 13:15:00
8:35 AM,57.2,53.6,88,30.01,10.0,South,10.4,-,N/A,,Clear,180,2013-04-29 13:35:00
8:55 AM,57.2,53.6,88,30.00,10.0,South,11.5,-,N/A,,Clear,170,2013-04-29 13:55:00
9:15 AM,60.8,55.4,82,30.01,10.0,South,10.4,-,N/A,,Clear,170,2013-04-29 14:15:00
9:35 AM,60.8,55.4,82,30.01,10.0,South,9.2,-,N/A,,Clear,180,2013-04-29 14:35:00
9:55 AM,62.6,55.4,77,30.01,10.0,South,11.5,-,N/A,,Clear,180,2013-04-29 14:55:00
10:15 AM,62.6,55.4,77,30.01,10.0,South,13.8,-,N/A,,Clear,170,2013-04-29 15:15:00
10:35 AM,64.4,57.2,77,30.01,10.0,South,12.7,-,N/A,,Partly Cloudy,170,2013-04-29 15:35:00
10:55 AM,66.2,57.2,73,30.01,10.0,South,13.8,-,N/A,,Partly Cloudy,190,2013-04-29 15:55:00
11:15 AM,66.2,57.2,73,30.00,10.0,South,12.7,-,N/A,,Clear,190,2013-04-29 16:15:00
11:35 AM,68.0,59.0,73,30.00,10.0,South,9.2,-,N/A,,Clear,170,2013-04-29 16:35:00
11:55 AM,69.8,60.8,73,29.99,10.0,South,10.4,16.1,N/A,,Clear,170,2013-04-29 16:55:00
12:15 PM,69.8,62.6,78,29.97,10.0,South,9.2,-,N/A,,Clear,180,2013-04-29 17:15:00
12:35 PM,71.6,62.6,73,29.97,10.0,South,12.7,17.3,N/A,,Partly Cloudy,190,2013-04-29 17:35:00
12:55 PM,71.6,60.8,69,29.96,10.0,South,15.0,-,N/A,,Clear,180,2013-04-29 17:55:00
1:15 PM,71.6,62.6,73,29.95,10.0,South,13.8,-,N/A,,Scattered Clouds,190,2013-04-29 18:15:00
1:35 PM,73.4,62.6,69,29.94,10.0,South,13.8,-,N/A,,Partly Cloudy,170,2013-04-29 18:35:00
1:55 PM,73.4,64.4,73,29.93,10.0,South,12.7,19.6,N/A,,Clear,170,2013-04-29 18:55:00
2:15 PM,73.4,62.6,69,29.92,10.0,South,12.7,-,N/A,,Clear,180,2013-04-29 19:15:00
2:35 PM,75.2,64.4,69,29.92,10.0,South,11.5,-,N/A,,Clear,180,2013-04-29 19:35:00
2:55 PM,75.2,64.4,69,29.91,10.0,SSE,15.0,18.4,N/A,,Partly Cloudy,160,2013-04-29 19:55:00
3:15 PM,75.2,64.4,69,29.90,10.0,SSE,12.7,18.4,N/A,,Clear,160,2013-04-29 20:15:00
3:35 PM,75.2,64.4,69,29.89,10.0,South,12.7,18.4,N/A,,Clear,170,2013-04-29 20:35:00
3:55 PM,77.0,64.4,65,29.89,10.0,South,12.7,-,N/A,,Clear,180,2013-04-29 20:55:00
4:15 PM,77.0,64.4,65,29.88,10.0,South,15.0,-,N/A,,Clear,190,2013-04-29 21:15:00
4:35 PM,77.0,64.4,65,29.87,10.0,SSE,12.7,-,N/A,,Clear,160,2013-04-29 21:35:00
4:55 PM,77.0,64.4,65,29.87,10.0,SSE,10.4,17.3,N/A,,Clear,160,2013-04-29 21:55:00
5:15 PM,77.0,64.4,65,29.87,10.0,SSE,12.7,-,N/A,,Clear,160,2013-04-29 22:15:00
5:35 PM,77.0,64.4,65,29.87,10.0,South,11.5,-,N/A,,Clear,170,2013-04-29 22:35:00
5:55 PM,75.2,64.4,69,29.87,10.0,South,13.8,-,N/A,,Clear,180,2013-04-29 22:55:00
6:15 PM,75.2,64.4,69,29.86,10.0,South,15.0,-,N/A,,Clear,170,2013-04-29 23:15:00
6:35 PM,75.2,62.6,65,29.86,10.0,South,12.7,-,N/A,,Clear,170,2013-04-29 23:35:00
6:55 PM,73.4,64.4,73,29.86,10.0,South,12.7,-,N/A,,Clear,170,2013-04-29 23:55:00
7:15 PM,71.6,62.6,73,29.86,10.0,SSE,11.5,-,N/A,,Clear,160,2013-04-30 00:15:00
7:35 PM,71.6,62.6,73,29.85,10.0,SSE,10.4,-,N/A,,Clear,160,2013-04-30 00:35:00
7:55 PM,69.8,62.6,78,29.86,10.0,SSE,9.2,-,N/A,,Clear,160,2013-04-30 00:55:00
8:15 PM,69.8,62.6,78,29.86,10.0,SSE,9.2,-,N/A,,Clear,160,2013-04-30 01:15:00
8:35 PM,68.0,62.6,83,29.87,10.0,SSE,8.1,-,N/A,,Clear,160,2013-04-30 01:35:00
8:55 PM,68.0,62.6,83,29.87,10.0,SSE,8.1,-,N/A,,Clear,150,2013-04-30 01:55:00
9:15 PM,66.2,62.6,88,29.88,10.0,SSE,8.1,-,N/A,,Clear,160,2013-04-30 02:15:00
10:35 PM,64.4,60.8,88,29.88,10.0,SSE,9.2,-,N/A,,Clear,160,2013-04-30 03:35:00
10:55 PM,64.4,60.8,88,29.88,10.0,SSE,9.2,-,N/A,,Clear,150,2013-04-30 03:55:00
11:15 PM,64.4,59.0,83,29.88,10.0,South,8.1,-,N/A,,Clear,170,2013-04-30 04:15:00
11:35 PM,64.4,59.0,83,29.89,10.0,SSE,9.2,-,N/A,,Clear,160,2013-04-30 04:35:00
11:55 PM,64.4,57.2,77,29.88,10.0,South,9.2,-,N/A,,Clear,170,2013-04-30 04:55:00